Home   Weather   Majuro   Past weeks

Flag for Marshall Islands Past Weather in Majuro, Marshall Islands — Yesterday and Last 2 Weeks

Now
85 °F

Scattered clouds.


Feels Like: 92 °F
Forecast: 80 / 84 °F
Wind: 9 mph from Northeast

Location: Majuro Atoll

Current Time: Jan 18, 2017 at 4:25:21 pm

Latest Report: Jan 18, 2017 at 3:55 pm


Visibility: 20 mi

Pressure: 29.78 "Hg

Humidity: 66%

Dew Point: 72 °F

Location of MajuroLocation

Past Weather in Majuro — Graph

°F

Majuro Temperature Yesterday

Maximum temperature yesterday: 87 °F (at 1:57 pm)
Minimum temperature yesterday: 75 °F (at 10:52 am)
Average temperature yesterday: 82 °F

High & Low Weather Summary for the Past Weeks

 TemperatureHumidityPressure
High87 °F (Jan 4, 12:56 pm)95% (Jan 12, 5:52 am)29.93 "Hg (Jan 12, 5:52 am)
Low74 °F (Jan 12, 5:52 am)63% (Jan 18, 12:54 pm)29.65 "Hg (Jan 6, 2:50 pm)
Average82 °F82%29.78 "Hg
* Reported Jan 3 1:51 pm — Jan 18 1:54 pm, Majuro, Weather by CustomWeather, © 2017

Note: Actual official high and low records may vary slightly from our data, if they occured in-between our weather recording intervals... More about our weather records

Advertising

Majuro Weather History for the Previous 24 Hours

Scroll right to see more
 ConditionsComfort  
Time TempWeatherWind HumidityBarometerVisibility
1:54 pm
Wed, Jan 18
86 °FScattered clouds.12 mph67%29.81 "Hg20 mi
12:54 pm86 °FScattered clouds.10 mph63%29.85 "Hg20 mi
11:51 am85 °FScattered clouds.10 mph67%29.86 "Hg20 mi
10:52 am85 °FScattered clouds.10 mph65%29.88 "Hg20 mi
9:51 am85 °FBroken clouds.9 mph64%29.90 "Hg15 mi
8:52 am83 °FBroken clouds.14 mph66%29.90 "Hg15 mi
7:53 am82 °FMore clouds than sun.12 mph71%29.88 "Hg15 mi
6:56 am82 °FMostly cloudy.16 mph73%29.86 "Hg15 mi
5:56 am82 °FMostly cloudy.16 mph72%29.85 "Hg15 mi
4:50 am82 °FMostly cloudy.15 mph75%29.83 "Hg15 mi
3:50 am82 °FMostly cloudy.15 mph78%29.82 "Hg15 mi
2:56 am82 °FMostly cloudy.14 mph78%29.82 "Hg15 mi
1:55 am82 °FOvercast.16 mph76%29.83 "Hg15 mi
12:55 am82 °FOvercast.14 mph77%29.83 "Hg15 mi
11:52 pm
Tue, Jan 17
82 °FOvercast.16 mph78%29.85 "Hg15 mi
10:52 pm83 °FOvercast.18 mph77%29.89 "Hg15 mi
9:50 pm83 °FOvercast.20 mph79%29.88 "Hg15 mi
8:54 pm83 °FOvercast.18 mph80%29.88 "Hg15 mi
7:50 pm83 °FMostly cloudy.21 mph81%29.87 "Hg15 mi
6:51 pm82 °FCloudy.6 mph85%29.85 "Hg15 mi
5:51 pm83 °FMostly cloudy.8 mph83%29.82 "Hg15 mi
4:50 pm83 °FCloudy.10 mph82%29.80 "Hg15 mi
Weather by CustomWeather, © 2017

See weather overviewHow to use our weather pages